Flag for Canada Weather past 2 weeks in Guelph, Ontario, Canada

Now
84 °F

Scattered clouds.


Feels Like: 83 °F
Forecast: N/A
Wind: 10 mph from South

Location: Waterloo Well

Current Time: May 29, 2015 at 4:52:39 PM

Latest Report: May 29, 2015 at 4:00 PM


Visibility: 9 mi

Pressure: 30.11 "Hg

Humidity: 35%

Dew point: 54 °F

Location of GuelphLocation

Historic Weather in Guelph — Graph

°F

Guelph temperature yesterday

Maximum temperature yesterday: 79 °F (at 4:00 PM)
Minimum temperature yesterday: 54 °F (at 5:00 AM)
Average temperature yesterday: 67 °F

Past Weeks' High & Low Weather Summary

 TemperatureHumidityPressure
High84 °F (May 18, 3:00 PM)94% (May 16, 1:00 AM)30.42 "Hg (May 16, 1:00 AM)
Low27 °F (May 23, 6:00 AM)20% (May 23, 3:00 PM)29.87 "Hg (May 21, 4:59 PM)
Average62 °F61%30.09 "Hg
* Reported May 14 3:00 PM — May 29 3:00 PM, Guelph, Weather by CustomWeather, © 2015

Note: Actual official high and low records may vary slightly from our data, if they occured in-between our weather recording intervals... More about our weather records

Advertising

Guelph weather history for previous 24 hours

 ConditionsComfort  
Time TempWeatherWind HumidityBarometerVisibility
3:00 PM
Fri, May 29
82 °FSunny.10 mph37%30.13 "Hg9 mi
2:00 PM81 °FSunny.10 mph39%30.15 "Hg9 mi
1:00 PM79 °FSunny.9 mph45%30.17 "Hg9 mi
12:00 PM77 °FSunny.8 mph47%30.19 "Hg9 mi
11:00 AM75 °FSunny.13 mph50%30.19 "Hg9 mi
10:00 AM73 °FSunny.12 mph53%30.20 "Hg9 mi
9:00 AM70 °FSunny.N/A57%30.22 "Hg9 mi
8:00 AM64 °FSunny.5 mph73%30.23 "Hg9 mi
7:00 AM55 °FSunny.5 mph88%30.24 "Hg9 mi
6:00 AM52 °FClear.3 mph94%30.24 "Hg9 mi
5:00 AM52 °FClear.2 mph94%30.24 "Hg9 mi
4:00 AM52 °FClear.3 mph94%30.24 "Hg9 mi
3:00 AM54 °FClear.2 mph88%30.24 "Hg9 mi
2:00 AM59 °FClear.No wind82%30.24 "Hg9 mi
1:00 AM59 °FClear.5 mph77%30.25 "Hg9 mi
12:00 AM61 °FClear.5 mph77%30.25 "Hg9 mi
11:00 PM
Thu, May 28
64 °FClear.2 mph68%30.26 "Hg9 mi
10:00 PM68 °FClear.7 mph60%30.27 "Hg9 mi
9:00 PM70 °FPartly sunny.9 mph57%30.25 "Hg9 mi
8:00 PM75 °FPartly sunny.13 mph50%30.23 "Hg9 mi
7:00 PM77 °FSunny.5 mph47%30.22 "Hg9 mi
6:04 PM77 °FHaze.2 mph44%30.22 "Hg5 mi
5:00 PM77 °FSunny.5 mph42%30.22 "Hg9 mi
4:00 PM79 °FPassing clouds.3 mph39%30.24 "Hg9 mi
Weather by CustomWeather, © 2015

See weather overviewHow to use our weather pages